W3ZTB Weather Reports


Display with metric or nautical units.
time (UTC)temp
F
wind
direction
speed
MPH
gust
MPH
rain 1hr
in
rain 24hr
in
rain mn
in
humidity
%
barometer
mb
20260505195505 82 207 9.0 18.0 0.00 0.00 0.00 34 1007.4
20260505195007 82 155 7.0 18.0 0.00 0.00 0.00 34 1007.4
20260505194518 81 194 7.0 18.0 0.00 0.00 0.00 34 1007.5
20260505194007 81 223 9.0 18.0 0.00 0.00 0.00 35 1007.6
20260505193509 81 254 9.0 22.0 0.00 0.00 0.00 34 1007.6
20260505193024 82 192 8.0 22.0 0.00 0.00 0.00 34 1007.6
20260505192507 82 211 8.0 17.0 0.00 0.00 0.00 34 1007.6
20260505192008 82 278 10.0 20.0 0.00 0.00 0.00 35 1007.6
20260505191524 81 238 10.0 20.0 0.00 0.00 0.00 34 1007.7
20260505191008 82 251 12.0 19.0 0.00 0.00 0.00 33 1007.7
20260505190508 82 246 9.0 16.0 0.00 0.00 0.00 34 1007.8
20260505190033 82 176 6.0 16.0 0.00 0.00 0.00 34 1007.8
20260505185504 82 203 8.0 16.0 0.00 0.00 0.00 34 1007.9
20260505185006 82 237 6.0 19.0 0.00 0.00 0.00 34 1008.0
20260505184519 81 289 6.0 19.0 0.00 0.00 0.00 35 1008.0
20260505184006 81 166 9.0 20.0 0.00 0.00 0.00 34 1008.1
20260505183508 81 261 10.0 20.0 0.00 0.00 0.00 33 1008.2
20260505183019 82 198 7.0 19.0 0.00 0.00 0.00 34 1008.1
20260505182507 81 155 9.0 17.0 0.00 0.00 0.00 35 1008.2
20260505182009 81 243 7.0 15.0 0.00 0.00 0.00 35 1008.3
20260505181523 81 294 5.0 14.0 0.00 0.00 0.00 36 1008.4
20260505181009 81 249 6.0 18.0 0.00 0.00 0.00 35 1008.5
20260505180509 81 250 9.0 18.0 0.00 0.00 0.00 34 1008.6
20260505180038 81 241 5.0 16.0 0.00 0.00 0.00 35 1008.5
20260505175508 80 259 9.0 17.0 0.00 0.00 0.00 35 1008.7
20260505175008 80 207 9.0 17.0 0.00 0.00 0.00 35 1008.7
20260505174526 80 274 7.0 22.0 0.00 0.00 0.00 36 1008.8
20260505174006 80 175 6.0 22.0 0.00 0.00 0.00 36 1008.7
20260505173510 80 274 9.0 19.0 0.00 0.00 0.00 36 1008.8
20260505173018 80 217 8.0 17.0 0.00 0.00 0.00 37 1008.9
20260505172506 80 240 6.0 18.0 0.00 0.00 0.00 36 1008.9
20260505172008 80 216 8.0 22.0 0.00 0.00 0.00 37 1009.0
20260505171522 80 278 9.0 22.0 0.00 0.00 0.00 36 1008.9
20260505171010 79 209 9.0 19.0 0.00 0.00 0.00 36 1009.0
20260505170510 79 270 9.0 18.0 0.00 0.00 0.00 36 1009.1
20260505170024 79 285 8.0 14.0 0.00 0.00 0.00 37 1009.1
20260505165511 78 218 9.0 17.0 0.00 0.00 0.00 37 1009.2
20260505165009 78 244 4.0 20.0 0.00 0.00 0.00 38 1009.3
20260505164526 78 274 8.0 20.0 0.00 0.00 0.00 37 1009.4
20260505164005 78 273 8.0 22.0 0.00 0.00 0.00 36 1009.5
20260505163505 79 296 12.0 22.0 0.00 0.00 0.00 36 1009.7
20260505163016 79 269 10.0 20.0 0.00 0.00 0.00 37 1009.7
20260505162506 78 246 11.0 19.0 0.00 0.00 0.00 37 1009.7
20260505162007 78 276 7.0 17.0 0.00 0.00 0.00 38 1009.7
20260505161518 78 269 9.0 17.0 0.00 0.00 0.00 37 1009.8
20260505161003 77 271 8.0 16.0 0.00 0.00 0.00 39 1009.8
20260505160503 78 271 9.0 18.0 0.00 0.00 0.00 38 1009.7
20260505153011 77 276 4.0 8.0 0.00 0.00 0.00 44 1009.9
20260505152505 77 241 3.0 9.0 0.00 0.00 0.00 44 1009.9
20260505152010 76 184 5.0 12.0 0.00 0.00 0.00 45 1010.0
20260505151517 76 241 8.0 12.0 0.00 0.00 0.00 45 1009.9
20260505151009 76 263 4.0 11.0 0.00 0.00 0.00 45 1009.9
20260505150507 75 289 4.0 14.0 0.00 0.00 0.00 45 1009.9
20260505140507 71 229 5.0 12.0 0.00 0.00 0.00 51 1010.5
20260505125008 65 234 3.0 9.0 0.00 0.00 0.00 61 1011.2
20260505124534 64 226 5.0 9.0 0.00 0.00 0.00 62 1011.1
20260505124009 64 229 2.0 8.0 0.00 0.00 0.00 63 1011.1
20260505123508 63 215 3.0 7.0 0.00 0.00 0.00 63 1011.0
20260505123022 63 253 3.0 8.0 0.00 0.00 0.00 64 1011.0
20260505122511 63 255 4.0 10.0 0.00 0.00 0.00 64 1011.2
20260505122001 63 252 4.0 10.0 0.00 0.00 0.00 64 1011.2
20260505121523 63 231 4.0 7.0 0.00 0.00 0.00 64 1011.1
20260505121005 63 250 2.0 7.0 0.00 0.00 0.00 65 1011.1
20260505120506 63 224 3.0 7.0 0.00 0.00 0.00 65 1011.2
20260505120013 62 233 2.0 5.0 0.00 0.00 0.00 65 1011.1
20260505115505 62 243 2.0 5.0 0.00 0.00 0.00 66 1011.0
20260505115007 62 195 2.0 5.0 0.00 0.00 0.00 67 1011.1
20260505114516 62 257 2.0 3.0 0.00 0.00 0.00 68 1011.0
20260505114008 62 266 1.0 3.0 0.00 0.00 0.00 68 1010.9
20260505113509 62 207 0.0 4.0 0.00 0.00 0.00 67 1010.9
20260505113021 62 212 3.0 5.0 0.00 0.00 0.00 66 1010.8
20260505112510 62 203 1.0 5.0 0.00 0.00 0.00 67 1010.7
20260505112011 61 224 2.0 6.0 0.00 0.00 0.00 66 1010.7
20260505111533 61 240 3.0 6.0 0.00 0.00 0.00 67 1010.7
20260505110505 60 215 2.0 5.0 0.00 0.00 0.00 67 1010.6
20260505102006 59 262 2.0 8.0 0.00 0.00 0.00 69 1010.2
20260505101506 59 259 2.0 8.0 0.00 0.00 0.00 69 1010.3
20260505101003 59 255 1.0 4.0 0.00 0.00 0.00 69 1010.3
20260505100503 59 207 2.0 5.0 0.00 0.00 0.00 69 1010.3
20260505100017 59 214 2.0 5.0 0.00 0.00 0.00 69 1010.2
20260505095503 59 250 0.0 5.0 0.00 0.00 0.00 69 1010.1
20260505095006 59 237 1.0 5.0 0.00 0.00 0.00 70 1010.1
20260505094516 58 204 1.0 3.0 0.00 0.00 0.00 71 1010.0
20260505094006 58 174 1.0 2.0 0.00 0.00 0.00 71 1009.9
20260505093506 58 341 0.0 1.0 0.00 0.00 0.00 72 1009.9
20260505093026 58 342 0.0 1.0 0.00 0.00 0.00 71 1009.9
20260505092506 59 342 0.0 1.0 0.00 0.00 0.00 71 1009.8
20260505092010 59 342 0.0 1.0 0.00 0.00 0.00 70 1009.8
20260505091532 59 342 0.0 2.0 0.00 0.00 0.00 69 1009.8
20260505091008 60 342 0.0 3.0 0.00 0.00 0.00 69 1009.7
20260505090503 61 359 1.0 8.0 0.00 0.00 0.00 67 1009.9
20260505090008 61 285 2.0 8.0 0.00 0.00 0.00 65 1009.7
20260505085504 61 263 3.0 8.0 0.00 0.00 0.00 65 1009.6
20260505085005 61 244 3.0 8.0 0.00 0.00 0.00 64 1009.6
20260505084511 62 260 3.0 10.0 0.00 0.00 0.00 64 1009.6
20260505084005 62 259 5.0 10.0 0.00 0.00 0.00 64 1009.6
20260505083509 62 250 4.0 9.0 0.00 0.00 0.00 64 1009.6
20260505083029 62 239 4.0 9.0 0.00 0.00 0.00 64 1009.7
20260505082507 62 261 3.0 9.0 0.00 0.00 0.00 64 1009.8
20260505082009 62 263 3.0 8.0 0.00 0.00 0.00 64 1009.7
20260505081523 62 219 4.0 8.0 0.00 0.00 0.00 64 1009.6
20260505081005 61 236 2.0 6.0 0.00 0.00 0.00 65 1009.6
20260505080506 61 231 2.0 5.0 0.00 0.00 0.00 65 1009.6
20260505080034 61 222 0.0 2.0 0.00 0.00 0.00 65 1009.6
20260505075506 62 213 0.0 2.0 0.00 0.00 0.00 65 1009.5
20260505075009 62 203 0.0 2.0 0.00 0.00 0.00 63 1009.5
20260505074512 62 261 1.0 3.0 0.00 0.00 0.00 63 1009.5
20260505074004 62 242 1.0 3.0 0.00 0.00 0.00 63 1009.4
20260505073503 63 233 1.0 3.0 0.00 0.00 0.00 62 1009.3
20260505072505 63 259 1.0 8.0 0.00 0.00 0.00 61 1009.2
20260505072006 63 208 3.0 8.0 0.00 0.00 0.00 61 1009.2
20260505071528 63 231 2.0 7.0 0.00 0.00 0.00 61 1009.1
20260505071004 63 212 3.0 6.0 0.00 0.00 0.00 61 1009.2
20260505070509 63 158 2.0 6.0 0.00 0.00 0.00 61 1009.2
20260505070028 63 211 3.0 6.0 0.00 0.00 0.00 61 1009.2
20260505065507 63 207 2.0 6.0 0.00 0.00 0.00 60 1009.3
20260505065010 63 170 2.0 5.0 0.00 0.00 0.00 60 1009.2
20260505064526 63 264 2.0 5.0 0.00 0.00 0.00 60 1009.3
20260505064010 64 227 1.0 8.0 0.00 0.00 0.00 60 1009.2
20260505063508 64 214 1.0 8.0 0.00 0.00 0.00 59 1009.3
20260505063015 64 228 3.0 6.0 0.00 0.00 0.00 59 1009.4
20260505062503 64 179 2.0 7.0 0.00 0.00 0.00 59 1009.4
20260505062004 64 262 2.0 7.0 0.00 0.00 0.00 58 1009.4
20260505061006 64 240 3.0 6.0 0.00 0.00 0.00 58 1009.4
20260505060510 64 257 2.0 6.0 0.00 0.00 0.00 58 1009.5
20260505060018 64 226 3.0 9.0 0.00 0.00 0.00 58 1009.5
20260505055510 64 236 4.0 9.0 0.00 0.00 0.00 57 1009.5
20260505055011 65 235 2.0 5.0 0.00 0.00 0.00 58 1009.5
20260505054534 65 201 2.0 5.0 0.00 0.00 0.00 57 1009.4
20260505054012 65 224 2.0 7.0 0.00 0.00 0.00 57 1009.5
20260505053510 65 246 4.0 7.0 0.00 0.00 0.00 57 1009.5
20260505053023 65 231 2.0 5.0 0.00 0.00 0.00 56 1009.5
20260505052508 65 240 3.0 6.0 0.00 0.00 0.00 56 1009.5
20260505052009 65 302 3.0 6.0 0.00 0.00 0.00 56 1009.4
20260505051006 65 278 1.0 5.0 0.00 0.00 0.00 56 1009.4
20260505050507 65 240 2.0 4.0 0.00 0.00 0.00 56 1009.4
20260505041006 65 262 1.0 3.0 0.00 0.00 0.00 54 1009.2
20260505040506 65 251 1.0 4.0 0.00 0.00 0.00 53 1009.2
20260505040017 65 256 1.0 5.0 0.00 0.00 0.00 53 1009.1
20260505035507 65 240 1.0 5.0 0.00 0.00 0.00 53 1009.2
20260505035004 65 215 2.0 4.0 0.00 0.00 0.00 53 1009.2
20260505034521 65 235 0.0 3.0 0.00 0.00 0.00 53 1009.2
20260505034003 65 222 1.0 3.0 0.00 0.00 0.00 53 1009.2
20260505033503 65 215 2.0 3.0 0.00 0.00 0.00 53 1009.2
20260505033006 65 234 0.0 4.0 0.00 0.00 0.00 52 1009.2
20260505032503 66 250 2.0 5.0 0.00 0.00 0.00 51 1009.3
20260505032005 66 240 4.0 7.0 0.00 0.00 0.00 50 1009.3
20260505031521 66 242 1.0 7.0 0.00 0.00 0.00 50 1009.2
20260505031003 66 243 0.0 1.0 0.00 0.00 0.00 50 1009.3
20260505030504 66 246 0.0 1.0 0.00 0.00 0.00 50 1009.3
20260505030011 66 243 0.0 2.0 0.00 0.00 0.00 49 1009.3
20260505025511 66 220 0.0 2.0 0.00 0.00 0.00 49 1009.2
20260505025007 67 236 1.0 4.0 0.00 0.00 0.00 48 1009.2
20260505024516 67 240 1.0 5.0 0.00 0.00 0.00 47 1009.2
20260505024006 67 232 1.0 5.0 0.00 0.00 0.00 47 1009.1
20260505023508 67 232 2.0 5.0 0.00 0.00 0.00 47 1009.0
20260505023022 67 169 0.0 2.0 0.00 0.00 0.00 46 1009.0
20260505022503 67 168 1.0 2.0 0.00 0.00 0.00 45 1009.0
20260505022003 67 9 0.0 3.0 0.00 0.00 0.00 45 1009.1
20260505021507 68 8 1.0 3.0 0.00 0.00 0.00 45 1009.1
20260505021003 68 117 0.0 3.0 0.00 0.00 0.00 44 1009.0
20260505020504 68 150 1.0 4.0 0.00 0.00 0.00 44 1009.0
20260505020008 69 134 2.0 6.0 0.00 0.00 0.00 44 1009.0
20260505015505 69 150 2.0 6.0 0.00 0.00 0.00 43 1009.0
20260505015005 69 168 1.0 6.0 0.00 0.00 0.00 43 1009.0
20260505014520 69 170 2.0 6.0 0.00 0.00 0.00 43 1009.0
20260505014006 69 161 3.0 6.0 0.00 0.00 0.00 43 1008.9
20260505013507 69 181 2.0 7.0 0.00 0.00 0.00 42 1008.9
20260505013019 69 146 3.0 8.0 0.00 0.00 0.00 42 1008.8
20260505012507 69 241 3.0 8.0 0.00 0.00 0.00 42 1008.8
20260505012009 69 172 3.0 6.0 0.00 0.00 0.00 42 1008.9
20260505011524 70 179 3.0 7.0 0.00 0.00 0.00 42 1008.9
20260505011004 70 229 2.0 7.0 0.00 0.00 0.00 42 1008.9
20260505010503 70 207 2.0 6.0 0.00 0.00 0.00 42 1008.8
20260505010013 70 142 2.0 6.0 0.00 0.00 0.00 41 1008.7
20260505005503 70 143 2.0 7.0 0.00 0.00 0.00 41 1008.6
20260505005004 70 154 2.0 8.0 0.00 0.00 0.00 41 1008.5
20260505004512 70 175 4.0 11.0 0.00 0.00 0.00 40 1008.5
20260505004005 70 203 5.0 11.0 0.00 0.00 0.00 40 1008.4
20260505003505 71 167 3.0 9.0 0.00 0.00 0.00 40 1008.4
20260505003016 71 211 3.0 9.0 0.00 0.00 0.00 40 1008.3
20260505002506 71 231 3.0 8.0 0.00 0.00 0.00 40 1008.3
20260505002005 71 163 3.0 11.0 0.00 0.00 0.00 40 1008.3
20260505001520 71 199 2.0 11.0 0.00 0.00 0.00 40 1008.3
20260505001008 71 241 1.0 9.0 0.00 0.00 0.00 39 1008.2
20260505000506 71 125 2.0 8.0 0.00 0.00 0.00 39 1008.2
20260505000027 72 226 2.0 10.0 0.00 0.00 0.00 39 1008.2
20260504235503 72 290 2.0 10.0 0.00 0.00 0.00 38 1008.2
20260504235003 73 146 2.0 7.0 0.00 0.00 0.00 38 1008.1
20260504234508 73 259 1.0 10.0 0.00 0.00 0.00 38 1008.1
20260504234001 73 235 4.0 10.0 0.00 0.00 0.00 37 1008.0
20260504233503 73 217 3.0 10.0 0.00 0.00 0.00 37 1008.0
20260504233014 74 183 3.0 9.0 0.00 0.00 0.00 37 1007.9
20260504232505 74 256 3.0 12.0 0.00 0.00 0.00 37 1007.9
20260504232007 74 244 4.0 15.0 0.00 0.00 0.00 37 1007.9
20260504231517 74 261 7.0 20.0 0.00 0.00 0.00 37 1008.0
20260504231009 74 240 7.0 20.0 0.00 0.00 0.00 37 1007.9
20260504230508 74 191 7.0 17.0 0.00 0.00 0.00 36 1008.0
20260504230022 74 177 6.0 17.0 0.00 0.00 0.00 37 1008.0
20260504225507 74 168 9.0 17.0 0.00 0.00 0.00 36 1008.0
20260504225011 74 244 6.0 16.0 0.00 0.00 0.00 36 1008.1
20260504224531 74 257 7.0 19.0 0.00 0.00 0.00 36 1008.1
20260504224003 74 170 11.0 19.0 0.00 0.00 0.00 36 1008.1
20260504223503 74 207 6.0 18.0 0.00 0.00 0.00 37 1008.1
20260504223025 74 242 7.0 18.0 0.00 0.00 0.00 36 1008.1
20260504222503 74 200 6.0 16.0 0.00 0.00 0.00 36 1008.1
20260504222007 74 237 6.0 16.0 0.00 0.00 0.00 36 1008.1
20260504221516 74 216 8.0 14.0 0.00 0.00 0.00 37 1008.2
20260504221006 75 194 6.0 13.0 0.00 0.00 0.00 36 1008.2
20260504220504 75 221 6.0 13.0 0.00 0.00 0.00 35 1008.3
20260504220008 75 219 6.0 17.0 0.00 0.00 0.00 35 1008.2
20260504215505 74 209 7.0 17.0 0.00 0.00 0.00 36 1008.2
20260504215002 75 236 6.0 14.0 0.00 0.00 0.00 35 1008.2
20260504214503 75 227 6.0 15.0 0.00 0.00 0.00 35 1008.1
20260504214003 75 193 5.0 15.0 0.00 0.00 0.00 36 1008.3
20260504213503 75 244 9.0 17.0 0.00 0.00 0.00 35 1008.3
20260504213009 75 184 6.0 17.0 0.00 0.00 0.00 35 1008.2
20260504212503 75 210 5.0 14.0 0.00 0.00 0.00 36 1008.2
20260504212003 75 226 6.0 16.0 0.00 0.00 0.00 35 1008.3
20260504211509 75 223 7.0 16.0 0.00 0.00 0.00 35 1008.1
20260504211004 75 243 7.0 16.0 0.00 0.00 0.00 35 1008.1
20260504210504 75 189 7.0 16.0 0.00 0.00 0.00 35 1008.1
20260504210016 75 218 8.0 15.0 0.00 0.00 0.00 35 1008.2
20260504205504 75 207 7.0 12.0 0.00 0.00 0.00 35 1008.1
20260504204004 75 173 4.0 13.0 0.00 0.00 0.00 34 1008.2
20260504203503 74 243 6.0 13.0 0.00 0.00 0.00 35 1008.4
20260504203006 74 223 6.0 12.0 0.00 0.00 0.00 35 1008.4
20260504202506 74 191 7.0 13.0 0.00 0.00 0.00 35 1008.5
20260504202004 74 200 6.0 13.0 0.00 0.00 0.00 35 1008.6
20260504201509 74 200 5.0 15.0 0.00 0.00 0.00 34 1008.7
20260504201003 74 172 5.0 16.0 0.00 0.00 0.00 35 1008.7
20260504200503 74 218 4.0 16.0 0.00 0.00 0.00 34 1008.8
20260504200016 74 248 7.0 14.0 0.00 0.00 0.00 35 1008.8